Location: Unspecified
(41.1637°N, 24.2901°E)
Time: 14:27:35
(UTC+01:00)

ISS - Visible Passes

Search period start: 17 February 2019 00:00
Search period end: 27 February 2019 00:00
Orbit: 403 x 411 km, 51.6° (Epoch: 17 February)

Date Brightness Start Highest point End Pass type
(mag) Time Alt. Az. Time Alt. Az. Time Alt. Az.
23 Feb -1.5 04:58:16 10° S 05:00:58 24° SE 05:03:40 10° ENE visible
24 Feb -0.9 04:08:05 10° SSE 04:09:40 13° SE 04:11:16 10° E visible
25 Feb -3.4 04:51:59 17° SW 04:54:19 62° SE 04:57:33 10° ENE visible
26 Feb -2.2 04:03:02 31° SE 04:03:02 31° SE 04:05:50 10° ENE visible
